[[[{"header":{"parameterUnit":"kt","parameterCategory":2,"dx":1,"dy":1,"la1":30.253999710083008,"la2":30.299108505249023,"lo1":-89.0895004272461,"lo2":-89.04439544677734,"nx":28,"ny":28,"refTime":"2022-10-25T21:00:00:Z","depth":0,"parameterNumber":1,"parameterNumberName":"U-component_of_WINDS"},"data":[7.6337,7.6517,7.6538,7.6755,7.6809,7.6962,7.7023,7.7104,7.7174,7.7359,7.747,7.7509,7.7587,7.7725,7.7847,7.7861,7.7913,7.7965,7.7973,7.7722,7.7688,7.7657,7.7615,7.7975,7.7975,7.8232,7.8234,7.8236,7.6161,7.6217,7.6336,7.6464,7.6568,7.6531,7.6631,7.672,7.6857,7.6943,7.7051,7.7216,7.7348,7.7409,7.754,7.7628,7.7618,7.7663,7.7657,7.7671,7.7402,7.7358,7.7669,7.7669,7.7669,7.7669,7.7669,7.7669,7.5846,7.5952,7.604,7.6169,7.6239,7.6325,7.6431,7.6474,7.6591,7.6727,7.6727,7.6882,7.6972,7.7137,7.7196,7.732,7.7274,7.7328,7.7342,7.7356,7.7371,7.7006,7.7342,7.7341,7.734,7.734,7.7339,0,7.5621,7.563,7.5742,7.5863,7.5958,7.6052,7.6142,7.6208,7.623,7.6325,7.6465,7.6549,7.6715,7.685,7.6975,7.7025,7.6996,7.6994,7.7032,7.7036,7.7027,7.7038,7.6603,7.6983,7.698,7.6978,7.6976,7.6975,7.5307,7.5426,7.5525,7.5602,7.5655,7.5779,7.5857,7.5866,7.5949,7.6061,7.6155,7.6288,7.6395,7.6616,7.6664,7.6788,7.6775,7.6919,7.6793,7.6794,7.6782,7.6776,7.679,7.6944,7.6948,7.6951,7.6954,0,7.5129,7.5156,7.5346,7.543,7.5456,7.5581,7.5654,7.576,7.5788,7.5939,7.5975,7.6019,7.6156,7.6179,7.6339,7.6348,7.6563,7.6545,7.6534,7.6532,7.6667,7.6655,7.709,7.715,7.6773,7.6777,7.678,0,7.4873,7.5028,7.5059,7.5168,7.5343,7.5346,7.552,7.556,7.5633,7.5752,7.572,7.5832,7.5843,7.596,7.5972,7.6151,7.6179,7.6197,7.6199,7.6202,7.62,7.6246,7.623,7.6193,7.6191,7.6189,7.6187,0,7.4593,7.4789,7.4965,7.5014,7.5117,7.5201,7.5248,7.5327,7.5402,7.5503,7.5553,7.567,7.5735,7.5828,7.5842,7.5756,7.606,7.5944,7.6078,7.6079,7.6144,7.614,7.6519,7.6184,7.6183,7.6183,7.6182,0,7.4388,7.4488,7.4738,7.4824,7.4875,7.499,7.5105,7.5208,7.5295,7.5309,7.5388,7.5368,7.5522,7.5407,7.5621,7.5506,7.5573,7.5603,7.5613,7.5629,7.55,7.5714,7.607,7.611,7.5645,7.564,7.5637,0,7.4064,7.4321,7.4323,7.456,7.4682,7.4637,7.4766,7.4841,7.487,7.4979,7.5011,7.5134,7.5052,7.5094,7.5196,7.5235,7.5385,7.5215,7.5377,7.5383,7.5359,7.5686,7.5734,7.5989,7.5579,7.5585,7.559,0,7.3815,7.3933,7.3975,7.4031,7.4128,7.4227,7.4374,7.4495,7.4568,7.4653,7.4779,7.4949,7.4897,7.4964,7.4958,7.5064,7.5283,7.4991,7.4994,7.5047,7.555,7.5596,7.5639,7.5257,7.5264,7.527,7.5544,0,7.3508,7.3636,7.3748,7.3867,7.3946,7.4093,7.4112,7.4194,7.4181,7.4206,7.4388,7.4451,7.4574,7.4625,7.4611,7.4844,7.4809,7.4749,7.4638,7.4851,7.4943,7.498,7.4501,7.4498,7.4495,7.4493,0,0,7.3192,7.3375,7.3369,7.3508,7.3576,7.3523,7.3679,7.3737,7.3856,7.3905,7.3843,7.4093,7.4146,7.4365,7.4433,7.448,7.4525,7.4447,7.4749,7.4777,7.4804,7.4901,7.4939,7.4488,7.4487,7.4487,7.4486,0,7.3083,7.3136,7.3287,7.3348,7.3436,7.3453,7.349,7.3568,7.359,7.3765,7.3719,7.3829,7.4024,7.409,7.4148,7.4422,7.4381,7.4457,7.46,7.4721,7.4753,7.4781,7.4883,7.492,7.4479,7.448,7.448,0,7.2843,7.2899,7.2972,7.3117,7.3173,7.3297,7.3186,7.3319,7.3412,7.3345,7.3518,7.3556,7.3641,7.3842,7.3933,7.3879,7.425,7.4133,7.4151,7.4161,7.4279,7.4318,7.4352,7.3902,7.39,7.3898,0,0,7.2746,7.2863,7.2923,7.3094,7.3133,7.316,7.3225,7.3217,7.3294,7.3325,7.337,7.3447,7.3562,7.3637,7.3744,7.3961,7.3981,7.4061,7.4089,7.4111,7.4134,7.4258,7.4296,7.3891,7.389,7.389,0,0,7.2699,7.2775,7.2746,7.2947,7.3022,7.3092,7.3197,7.3164,7.3261,7.3246,7.3238,7.3258,7.3445,7.3482,7.3376,7.3705,7.3595,7.3621,7.3674,7.3708,7.3735,7.3723,7.327,0,0,0,0,0,7.2595,7.2766,7.2739,7.2775,7.2955,7.3107,7.313,7.3127,7.305,7.3135,7.3168,7.3118,7.3424,7.333,7.3366,7.3485,7.379,7.3807,7.3824,7.3944,7.398,7.401,0,0,0,0,0,0,7.2609,7.2653,7.2735,7.2812,7.2852,7.3101,7.2971,7.2975,7.3041,7.3029,7.3113,7.312,7.312,7.3311,7.3344,7.3457,7.3259,7.3797,7.3812,7.3825,7.3956,7.3985,7.4011,0,0,0,0,0,7.262,7.2655,7.2944,7.2809,7.2844,7.2881,7.2964,7.2966,7.3018,7.3068,7.3073,7.3009,7.3124,7.3151,7.333,7.3442,7.3236,7.3248,7.3806,7.3818,7.3829,7.397,0,0,0,0,0,0,7.2628,7.2659,7.2951,7.2962,7.2743,7.2867,7.2886,7.2959,7.3052,7.3059,7.2963,7.2952,7.3128,7.3148,7.317,7.3437,7.3217,7.323,7.3238,7.3816,7.3825,7.3833,0,0,0,0,0,0,7.264,7.2668,7.2957,7.2873,7.2874,7.2854,7.2871,7.3022,7.3053,7.2941,7.2935,7.2957,7.3096,7.3148,7.3164,7.3399,7.3203,7.3215,7.3223,7.3229,7.3823,7.3831,0,0,0,0,0,0,7.2652,7.2676,7.287,7.2871,7.2872,7.2991,7.2987,7.3172,7.2981,7.2938,7.2964,7.2956,7.3097,7.3113,7.316,7.3389,7.3396,7.3203,7.3212,7.3217,7.3221,0,0,0,0,0,0,0,7.2662,7.2499,7.2888,7.287,7.287,7.306,7.3063,7.3066,7.298,7.2973,7.2966,7.296,7.3135,7.3148,7.3161,7.338,0,0,7.3202,7.3208,0,0,0,0,0,0,0,0,7.2488,7.2496,7.2888,7.2891,7.2893,7.3061,7.3063,7.3066,7.2979,7.2973,7.2968,7.2962,7.3139,7.3149,7.316,0,0,0,0,0,0,0,0,0,0,0,0,0,0,0,7.2889,7.289,0,7.3061,7.3063,7.3065,7.2978,7.2973,7.2969,7.2964,7.3142,7.315,7.3159,0,0,0,0,0,0,0,0,0,0,0,0,0,0,0,0,0,0,0,0,0,0,0,0,0,0,0,0,0,0,0,0,0,0,0,0,0,0,0,0,0,0,0,0,0,0,0,0,0,0,0,0,0,0,0,0,0,0,0,0,0,0,0,0,0,0,0,0,0]}],[{"header":{"parameterUnit":"kt","parameterCategory":2,"dx":1,"dy":1,"la1":30.253999710083008,"la2":30.299108505249023,"lo1":-89.0895004272461,"lo2":-89.04439544677734,"nx":28,"ny":28,"refTime":"2022-10-25T21:00:00:Z","depth":0,"parameterNumber":2,"parameterNumberName":"V-component_of_WINDS"},"data":[-8.7669,-8.7785,-8.7799,-8.7935,-8.797,-8.8064,-8.8102,-8.8151,-8.8193,-8.8304,-8.837,-8.8391,-8.8434,-8.8513,-8.8582,-8.8589,-8.8618,-8.865,-8.8653,-8.85,-8.8479,-8.846,-8.8434,-8.8656,-8.8657,-8.881,-8.8812,-8.8813,-8.7557,-8.7594,-8.767,-8.7753,-8.7818,-8.7795,-8.7857,-8.7912,-8.7996,-8.8047,-8.8112,-8.821,-8.8287,-8.8319,-8.8394,-8.8445,-8.8437,-8.8465,-8.8461,-8.8468,-8.8305,-8.8278,-8.847,-8.847,-8.847,-8.847,-8.847,-8.847,-8.7357,-8.7425,-8.7484,-8.7566,-8.7611,-8.7665,-8.7731,-8.7758,-8.783,-8.7913,-8.7911,-8.8005,-8.8056,-8.815,-8.8184,-8.8255,-8.8225,-8.8258,-8.8266,-8.8275,-8.8283,-8.8061,-8.8268,-8.8267,-8.8267,-8.8266,-8.8266,0,-8.7214,-8.7221,-8.7294,-8.7373,-8.7433,-8.7493,-8.755,-8.7591,-8.7604,-8.7663,-8.7748,-8.7799,-8.7897,-8.7976,-8.8048,-8.8075,-8.8054,-8.8052,-8.8075,-8.8078,-8.8072,-8.8077,-8.781,-8.8046,-8.8044,-8.8042,-8.8041,-8.8041,-8.7013,-8.7091,-8.7157,-8.7207,-8.7241,-8.7321,-8.737,-8.7376,-8.7428,-8.7496,-8.7554,-8.7635,-8.7699,-8.783,-8.7855,-8.7927,-8.7917,-8.8006,-8.7927,-8.7928,-8.7919,-8.7914,-8.7922,-8.8021,-8.8023,-8.8025,-8.8027,0,-8.6898,-8.6919,-8.7043,-8.7099,-8.7116,-8.7196,-8.7243,-8.7309,-8.7326,-8.742,-8.7442,-8.7467,-8.7549,-8.756,-8.7654,-8.7657,-8.7786,-8.7774,-8.7769,-8.7767,-8.7848,-8.784,-8.8108,-8.8143,-8.7913,-8.7915,-8.7917,0,-8.6734,-8.6836,-8.686,-8.6931,-8.7044,-8.7047,-8.7158,-8.7183,-8.7228,-8.7302,-8.7281,-8.735,-8.7353,-8.7423,-8.7427,-8.7534,-8.7551,-8.7559,-8.7559,-8.7562,-8.7561,-8.7587,-8.7577,-8.7556,-8.7554,-8.7553,-8.7552,0,-8.6554,-8.6684,-8.68,-8.6833,-8.6902,-8.6955,-8.6985,-8.7035,-8.7083,-8.7145,-8.7175,-8.7247,-8.7286,-8.7341,-8.7346,-8.7292,-8.7477,-8.7404,-8.7485,-8.7485,-8.7525,-8.7522,-8.7757,-8.755,-8.755,-8.7549,-8.7549,0,-8.6424,-8.6491,-8.6655,-8.6712,-8.6746,-8.6821,-8.6894,-8.696,-8.7014,-8.7023,-8.7071,-8.7057,-8.7152,-8.7079,-8.7209,-8.7138,-8.7177,-8.7193,-8.7199,-8.7208,-8.7126,-8.7258,-8.7481,-8.7504,-8.7217,-8.7214,-8.7212,0,-8.6212,-8.6383,-8.6388,-8.6543,-8.6623,-8.6595,-8.6678,-8.6727,-8.6745,-8.6813,-8.6832,-8.6909,-8.6857,-8.6883,-8.6946,-8.6967,-8.7059,-8.6955,-8.705,-8.7054,-8.7038,-8.7243,-8.7274,-8.7431,-8.7176,-8.718,-8.7183,0,-8.605,-8.6134,-8.6161,-8.6199,-8.6265,-8.6331,-8.6426,-8.6505,-8.6551,-8.6607,-8.6685,-8.6793,-8.6759,-8.68,-8.6796,-8.6861,-8.6997,-8.6814,-8.6815,-8.6847,-8.7159,-8.7188,-8.7214,-8.6979,-8.6983,-8.6987,-8.7155,0,-8.585,-8.5938,-8.6012,-8.6095,-8.6148,-8.6245,-8.626,-8.6313,-8.6305,-8.6321,-8.6436,-8.6477,-8.6554,-8.6586,-8.6577,-8.6722,-8.6699,-8.6661,-8.659,-8.6724,-8.678,-8.6803,-8.6506,-8.6504,-8.6502,-8.6501,0,0,-8.5642,-8.5768,-8.577,-8.5863,-8.5908,-8.5877,-8.598,-8.6019,-8.6098,-8.6129,-8.609,-8.6248,-8.6282,-8.642,-8.6463,-8.6493,-8.652,-8.6472,-8.666,-8.6678,-8.6694,-8.6754,-8.6777,-8.6498,-8.6497,-8.6497,-8.6496,0,-8.5573,-8.5613,-8.5716,-8.5758,-8.5819,-8.5833,-8.5857,-8.5912,-8.5927,-8.604,-8.601,-8.608,-8.6205,-8.6245,-8.6282,-8.6456,-8.6428,-8.6478,-8.6569,-8.6643,-8.6663,-8.668,-8.6742,-8.6765,-8.6492,-8.6492,-8.6493,0,-8.5416,-8.5458,-8.5509,-8.5611,-8.565,-8.5732,-8.5663,-8.5752,-8.5812,-8.577,-8.5882,-8.5906,-8.5959,-8.6088,-8.6145,-8.6111,-8.6345,-8.6272,-8.6283,-8.629,-8.6361,-8.6385,-8.6407,-8.6125,-8.6124,-8.6123,0,0,-8.5354,-8.5435,-8.548,-8.5597,-8.5624,-8.5645,-8.5689,-8.5686,-8.5737,-8.5757,-8.5787,-8.5836,-8.5909,-8.5956,-8.6025,-8.6164,-8.6175,-8.6227,-8.6244,-8.6258,-8.6272,-8.6348,-8.6371,-8.6118,-8.6118,-8.6117,0,0,-8.5323,-8.5381,-8.5365,-8.5502,-8.5554,-8.5604,-8.5673,-8.5653,-8.5717,-8.5707,-8.5702,-8.5715,-8.5834,-8.5858,-8.5791,-8.6,-8.5929,-8.5946,-8.598,-8.6002,-8.6019,-8.6011,-8.5722,0,0,0,0,0,-8.5259,-8.5374,-8.5359,-8.5384,-8.551,-8.5613,-8.5629,-8.5629,-8.558,-8.5636,-8.5657,-8.5625,-8.5821,-8.5761,-8.5784,-8.5859,-8.6054,-8.6065,-8.6076,-8.6153,-8.6176,-8.6195,0,0,0,0,0,0,-8.5269,-8.53,-8.5356,-8.5411,-8.544,-8.5609,-8.5526,-8.5529,-8.5575,-8.5567,-8.5622,-8.5626,-8.5626,-8.5749,-8.577,-8.5841,-8.5715,-8.6058,-8.6068,-8.6077,-8.6161,-8.6179,-8.6195,0,0,0,0,0,-8.5277,-8.5302,-8.5505,-8.541,-8.5434,-8.5463,-8.5522,-8.5524,-8.5558,-8.5592,-8.5595,-8.5555,-8.5629,-8.5646,-8.5761,-8.5832,-8.5701,-8.5708,-8.6065,-8.6072,-8.6079,-8.617,0,0,0,0,0,0,-8.5283,-8.5303,-8.551,-8.5517,-8.5366,-8.5453,-8.5467,-8.5519,-8.558,-8.5585,-8.5524,-8.5517,-8.5632,-8.5645,-8.5658,-8.5829,-8.5689,-8.5697,-8.5702,-8.607,-8.6076,-8.6082,0,0,0,0,0,0,-8.529,-8.531,-8.5513,-8.5459,-8.546,-8.5444,-8.5457,-8.5553,-8.5581,-8.5509,-8.5505,-8.552,-8.561,-8.5644,-8.5655,-8.5806,-8.5679,-8.5687,-8.5692,-8.5696,-8.6075,-8.608,0,0,0,0,0,0,-8.5298,-8.5315,-8.5457,-8.5458,-8.5459,-8.5541,-8.5529,-8.5658,-8.5538,-8.5506,-8.5526,-8.5521,-8.561,-8.5621,-8.5652,-8.5799,-8.5804,-8.568,-8.5685,-8.5689,-8.5691,0,0,0,0,0,0,0,-8.5305,-8.5191,-8.5466,-8.5457,-8.5458,-8.5586,-8.5588,-8.559,-8.5536,-8.5532,-8.5528,-8.5523,-8.5636,-8.5644,-8.5653,-8.5794,0,0,-8.5679,-8.5683,0,0,0,0,0,0,0,0,-8.5184,-8.5189,-8.5467,-8.5468,-8.547,-8.5586,-8.5588,-8.5589,-8.5536,-8.5532,-8.5529,-8.5525,-8.5638,-8.5645,-8.5652,0,0,0,0,0,0,0,0,0,0,0,0,0,0,0,-8.5467,-8.5468,0,-8.5586,-8.5588,-8.5589,-8.5535,-8.5532,-8.5529,-8.5526,-8.564,-8.5645,-8.5651,0,0,0,0,0,0,0,0,0,0,0,0,0,0,0,0,0,0,0,0,0,0,0,0,0,0,0,0,0,0,0,0,0,0,0,0,0,0,0,0,0,0,0,0,0,0,0,0,0,0,0,0,0,0,0,0,0,0,0,0,0,0,0,0,0,0,0,0,0]}]]]